Flag for U.S.A. Weather past 2 weeks in Youngstown, Ohio, U.S.A.

Now
20 °F

Light snow. Ice fog.


Feels Like: 8 °F
Forecast: 23 / 29 °F
Wind: 12 mph from North

Location: Youngstown-Warren Regional Airport

Current Time: Jan 25, 2015 at 9:29:53 PM

Latest Report: Jan 25, 2015 at 8:51 PM


Visibility: 3 mi

Pressure: 29.89 "Hg

Humidity: 85%

Dew point: 16 °F

Location of YoungstownLocation

Historic Weather in Youngstown — Graph

°F

Youngstown temperature yesterday

Maximum temperature yesterday: 32 °F (at 10:51 PM)
Minimum temperature yesterday: 22 °F (at 8:51 AM)
Average temperature yesterday: 27 °F

Past Weeks' High & Low Weather Summary

 TemperatureHumidityPressure
High46 °F (Jan 18, 1:51 AM)96% (Jan 12, 3:51 AM)30.69 "Hg (Jan 12, 3:51 AM)
Low1 °F (Jan 14, 7:51 AM)38% (Jan 11, 2:51 PM)29.59 "Hg (Jan 24, 2:51 PM)
Average25 °F76%30.12 "Hg
* Reported Jan 10 7:51 PM — Jan 25 7:51 PM, Youngstown, Weather by CustomWeather, © 2014

Note: Actual official high and low records may vary slightly from our data, if they occured in-between our weather recording intervals... More about our weather records

Advertising

Youngstown weather history for previous 24 hours

 ConditionsComfort  
Time TempWeatherWind HumidityBarometerVisibility
7:51 PM
Jan 25
22 °FLight snow. Mostly cloudy.12 mph85%29.88 "Hg7 mi
6:51 PM24 °FLight snow. Ice fog.10 mph84%29.87 "Hg1 mi
5:51 PM24 °FLight snow. Ice fog.10 mph84%29.86 "Hg1 mi
4:51 PM25 °FLight snow. Ice fog.8 mph85%29.85 "Hg1 mi
3:51 PM26 °FLight snow. Ice fog.10 mph81%29.85 "Hg1 mi
2:51 PM27 °FLight snow. Cloudy.8 mph78%29.83 "Hg7 mi
1:51 PM27 °FMore clouds than sun.9 mph78%29.84 "Hg10 mi
12:51 PM28 °FLight snow. Mostly cloudy.7 mph81%29.85 "Hg9 mi
11:51 AM28 °FLight snow. Mostly cloudy.10 mph81%29.86 "Hg7 mi
10:51 AM28 °FLight snow. Ice fog.8 mph93%29.85 "Hg1 mi
9:51 AM28 °FLight snow. Ice fog.10 mph89%29.82 "Hg5 mi
8:51 AM29 °FLight freezing rain. Ice fog.13 mph89%29.81 "Hg2 mi
7:51 AM33 °FFog.No wind96%29.78 "Hg1 mi
6:51 AM33 °FLight snow. Fog.3 mph96%29.76 "Hg1 mi
5:51 AM33 °FLight snow. Fog.3 mph96%29.75 "Hg1 mi
4:51 AM33 °FLight snow. Fog.6 mph92%29.75 "Hg1 mi
3:51 AM33 °FLight snow. Fog.8 mph92%29.74 "Hg2 mi
2:51 AM33 °FFog.10 mph88%29.73 "Hg4 mi
1:51 AM32 °FLight snow. Ice fog.10 mph92%29.71 "Hg2 mi
12:51 AM32 °FLight snow. Ice fog.13 mph88%29.69 "Hg3 mi
11:51 PM
Jan 24
32 °FLight snow. Ice fog.10 mph88%29.70 "Hg3 mi
10:51 PM32 °FIce fog.14 mph88%29.68 "Hg5 mi
9:51 PM31 °FIce fog.12 mph92%29.68 "Hg5 mi
Weather by CustomWeather, © 2014

See weather overviewHow to use our weather pages